Location: Arroyo de Valdeoliva
(40.1604°N, 4.9878°W)
Time: 11:53:34
(UTC+00:00)

Tiangong - Pass Details

Date: 20 February 2026
Orbit: 381 x 391 km, 41.5° (Epoch: 8 March)

Event Time Altitude Azimuth Distance (km) Brightness Sun altitude
Rises 18:25:28 0° 282° (WNW) 2,260 3.3 -5.3°
Reaches altitude 10° 18:27:33 10° 281° (WNW) 1,403 2.1 -5.7°
Maximum altitude 18:30:42 78° 195° (SSW) 394 -2.0 -6.3°
Drops below altitude 10° 18:33:51 10° 109° (ESE) 1,393 0.1 -6.9°
Enters shadow 18:34:24 - 109° (ESE) 1,620 0.5 -7.0°
